Location: D�derode
(51.8092°N, 10.1065°E)
Time: 05:51:21
(UTC+00:00)

IRS-1C Rocket - Pass Details

Date: 01 December 2020
Orbit: 800 x 806 km, 99.0° (Epoch: 23 January)

Event Time Altitude Azimuth Distance (km) Brightness Sun altitude
Rises 17:38:38 0° 170° (S) 3,310 7.3 -21.6°
Reaches altitude 10° 17:40:59 10° 173° (S) 2,384 6.6 -22.0°
Maximum altitude 17:46:14 68° 257° (WSW) 871 4.4 -22.8°
Drops below altitude 10° 17:51:31 10° 340° (NNW) 2,400 6.7 -23.6°
Sets 17:53:53 0° 343° (NNW) 3,334 7.4 -23.9°
